Weather History for Sparta, WI

Change the Weather History Date:

Friday, May 23, 2014

  Actual Average Record
Temperature  
Mean Temperature 55 °F -  
Max Temperature 76 °F 73 °F 91 °F (1972)
Min Temperature 35 °F 49 °F 26 °F (1963)
Degree Days  
Heating Degree Days 10    
Growing Degree Days 5 (Base 50)    
Moisture  
Dew Point 40 °F    
Average Humidity 60    
Maximum Humidity 99    
Minimum Humidity 26    
Precipitation  
Precipitation 0.00 in - - ()
Sea Level Pressure  
Sea Level Pressure 30.20 in    
Wind  
Wind Speed 1 mph (NE)    
Max Wind Speed 8 mph    
Max Gust Speed -    
Visibility 10 miles    
Events      
Averages and records for this station are not official NWS values.
T = Trace of Precipitation, MM = Missing Value Source: NWS Daily Summary

Daily Weather History Graph

Daily Weather History Graph

Search for Another Location

Airport:

Trip Planner

Search our weather history database for the weather conditions in past years. The results will help you decide how hot, cold, wet, or windy it might be!

Date:

Astronomy

May. 23, 2014 Rise Set
Actual Time 5:29 AM CDT 8:30 PM CDT
Civil Twilight 4:55 AM CDT 9:05 PM CDT
Nautical Twilight 4:11 AM CDT 9:49 PM CDT
Astronomical Twilight 3:19 AM CDT 10:41 PM CDT
Moon 2:35 AM CDT (5/23) 3:13 PM CDT (5/23)
Length of Visible Light 16h 10m
Length of Day
15h 01m
Waning Crescent, 27% of the Moon is Illuminated
May 23
Waning Crescent
May 28
New
Jun 5
First Quarter
Jun 12
Full
Jun 19
Last Quarter

Hourly Weather History & Observations

Time (CDT) Temp. Dew Point Humidity Pressure Visibility Wind Dir Wind Speed Gust Speed Precip Events Conditions
12:15 AM 45.1 °F 41.0 °F 85% 30.19 in 10.0 mi Calm Calm - N/A   Clear
12:35 AM 44.6 °F 40.1 °F 84% 30.20 in 10.0 mi Calm Calm - N/A   Clear
12:55 AM 44.2 °F 40.1 °F 85% 30.20 in 10.0 mi Calm Calm - N/A   Clear
1:15 AM 43.0 °F 41.0 °F 93% 30.20 in 10.0 mi Calm Calm - N/A   Clear
1:35 AM 41.4 °F 39.9 °F 95% 30.20 in 10.0 mi Calm Calm - N/A   Clear
1:55 AM 41.9 °F 40.6 °F 95% 30.20 in 10.0 mi Calm Calm - N/A   Clear
2:15 AM 39.9 °F 38.7 °F 95% 30.20 in 10.0 mi Calm Calm - N/A   Clear
2:30 AM 40.6 °F 39.4 °F 95% 30.21 in 10.0 mi Calm Calm - N/A   Clear
2:55 AM 39.4 °F 38.5 °F 97% 30.22 in 10.0 mi Calm Calm - N/A   Clear
3:15 AM 38.3 °F 37.4 °F 97% 30.22 in 10.0 mi Calm Calm - N/A   Clear
3:35 AM 37.9 °F 37.2 °F 97% 30.21 in 10.0 mi Calm Calm - N/A   Clear
3:55 AM 38.5 °F 37.9 °F 98% 30.21 in 10.0 mi Calm Calm - N/A   Clear
4:15 AM 36.9 °F 36.1 °F 97% 30.21 in 10.0 mi Calm Calm - N/A   Clear
4:35 AM 37.6 °F 36.7 °F 97% 30.21 in 10.0 mi Calm Calm - N/A   Clear
4:55 AM 37.0 °F 36.1 °F 97% 30.20 in 10.0 mi Calm Calm - N/A   Clear
5:15 AM 36.0 °F 35.2 °F 97% 30.21 in 10.0 mi Calm Calm - N/A   Clear
5:35 AM 35.8 °F 35.2 °F 98% 30.22 in 10.0 mi Calm Calm - N/A   Clear
5:55 AM 36.0 °F 35.8 °F 99% 30.23 in 10.0 mi Calm Calm - N/A   Clear
6:15 AM 37.2 °F 36.9 °F 99% 30.22 in 10.0 mi Calm Calm - N/A   Clear
6:35 AM 40.1 °F 38.7 °F 95% 30.23 in 10.0 mi Calm Calm - N/A   Clear
6:55 AM 43.3 °F 41.2 °F 92% 30.24 in 10.0 mi Calm Calm - N/A   Clear
7:15 AM 45.9 °F 42.8 °F 89% 30.25 in 10.0 mi Calm Calm - N/A   Clear
7:35 AM 48.9 °F 43.7 °F 82% 30.25 in 10.0 mi Calm Calm - N/A   Clear
7:55 AM 52.2 °F 44.4 °F 75% 30.24 in 10.0 mi Calm Calm - N/A   Clear
8:15 AM 54.9 °F 44.4 °F 68% 30.25 in 10.0 mi Calm Calm - N/A   Clear
8:35 AM 58.3 °F 41.9 °F 54% 30.25 in 10.0 mi NNE 5.8 mph - N/A   Clear
8:55 AM 60.4 °F 40.5 °F 48% 30.24 in 10.0 mi NE 5.8 mph - N/A   Clear
9:15 AM 62.1 °F 39.9 °F 44% 30.25 in 10.0 mi NNE 8.1 mph - N/A   Clear
9:35 AM 63.5 °F 40.5 °F 43% 30.25 in 10.0 mi NE 8.1 mph - N/A   Clear
9:50 AM 64.2 °F 39.6 °F 40% 30.24 in 10.0 mi North 8.1 mph - N/A   Clear
10:15 AM 65.5 °F 39.2 °F 38% 30.25 in 10.0 mi NNW 6.9 mph - N/A   Clear
10:35 AM 65.5 °F 39.0 °F 38% 30.24 in 10.0 mi NE 5.8 mph - N/A   Clear
10:55 AM 66.7 °F 38.7 °F 36% 30.24 in 10.0 mi NE 3.5 mph - N/A   Clear
11:35 AM 68.4 °F 39.4 °F 35% 30.24 in 10.0 mi NNE 4.6 mph - N/A   Clear
11:55 AM 68.2 °F 38.7 °F 34% 30.23 in 10.0 mi North 8.1 mph - N/A   Clear
12:15 PM 70.2 °F 39.6 °F 33% 30.23 in 10.0 mi North 8.1 mph - N/A   Clear
12:35 PM 70.5 °F 39.7 °F 33% 30.23 in 10.0 mi NW 6.9 mph - N/A   Clear
12:50 PM 71.2 °F 39.9 °F 32% 30.23 in 10.0 mi Calm Calm - N/A   Clear
1:15 PM 71.4 °F 38.5 °F 30% 30.22 in 10.0 mi Calm Calm - N/A   Clear
1:55 PM 73.0 °F 38.7 °F 29% 30.21 in 10.0 mi Calm Calm - N/A   Clear
2:15 PM 72.7 °F 38.8 °F 29% 30.20 in 10.0 mi Calm Calm - N/A   Clear
2:30 PM 73.6 °F 39.2 °F 29% 30.20 in 10.0 mi North 3.5 mph - N/A   Clear
3:15 PM 73.4 °F 39.2 °F 29% 30.18 in 10.0 mi ENE 4.6 mph - N/A   Clear
3:35 PM 75.0 °F 39.7 °F 28% 30.18 in 10.0 mi NE 3.5 mph - N/A   Clear
3:50 PM 72.9 °F 39.0 °F 29% 30.18 in 10.0 mi East 6.9 mph - N/A   Clear
4:15 PM 75.4 °F 39.0 °F 27% 30.18 in 10.0 mi Calm Calm - N/A   Clear
4:35 PM 75.7 °F 39.2 °F 27% 30.18 in 10.0 mi ESE 4.6 mph - N/A   Clear
4:55 PM 75.4 °F 38.8 °F 27% 30.18 in 10.0 mi East 5.8 mph - N/A   Clear
5:15 PM 75.9 °F 38.8 °F 26% 30.17 in 10.0 mi ESE 5.8 mph - N/A   Clear
5:35 PM 75.9 °F 38.3 °F 26% 30.17 in 10.0 mi Calm Calm - N/A   Clear
5:55 PM 75.6 °F 38.8 °F 27% 30.17 in 10.0 mi SSW 3.5 mph - N/A   Scattered Clouds
6:15 PM 75.0 °F 39.0 °F 27% 30.17 in 10.0 mi Calm Calm - N/A   Mostly Cloudy
6:35 PM 74.3 °F 39.9 °F 29% 30.16 in 10.0 mi South 4.6 mph - N/A   Scattered Clouds
6:55 PM 73.8 °F 39.9 °F 29% 30.16 in 10.0 mi South 5.8 mph - N/A   Clear
7:15 PM 72.7 °F 39.4 °F 30% 30.16 in 10.0 mi SSW 3.5 mph - N/A   Clear
7:35 PM 72.5 °F 39.4 °F 30% 30.16 in 10.0 mi Calm Calm - N/A   Clear
7:55 PM 71.2 °F 39.6 °F 32% 30.15 in 10.0 mi Calm Calm - N/A   Clear
8:10 PM 68.9 °F 42.6 °F 39% 30.16 in 10.0 mi Calm Calm - N/A   Clear
8:35 PM 63.3 °F 43.2 °F 48% 30.15 in 10.0 mi Calm Calm - N/A   Clear
8:55 PM 61.0 °F 45.3 °F 56% 30.16 in 10.0 mi Calm Calm - N/A   Clear
9:10 PM 59.9 °F 45.0 °F 58% 30.16 in 10.0 mi Calm Calm - N/A   Clear
9:35 PM 57.4 °F 45.0 °F 63% 30.17 in 10.0 mi Calm Calm - N/A   Clear
9:55 PM 55.6 °F 44.8 °F 67% 30.17 in 10.0 mi Calm Calm - N/A   Clear
10:15 PM 56.3 °F 44.4 °F 64% 30.18 in 10.0 mi East 4.6 mph - N/A   Clear
10:35 PM 52.9 °F 43.3 °F 70% 30.18 in 10.0 mi Calm Calm - N/A   Clear
11:00 PM 52.5 °F 43.3 °F 71% 30.19 in 10.0 mi Calm Calm - N/A   Clear
11:15 PM 50.5 °F 43.5 °F 77% 30.19 in 10.0 mi Calm Calm - N/A   Clear
11:35 PM 49.8 °F 43.2 °F 78% 30.20 in 10.0 mi Calm Calm - N/A   Clear
11:55 PM 49.1 °F 43.3 °F 81% 30.20 in 10.0 mi Calm Calm - N/A   Clear